{"data":{"norad_id":61914,"epoch":"2026-05-24T21:48:24.319584Z","epoch_age_seconds":73206,"freshness":"FRESH","line1":"1 61914U 24207C   26144.90861481  .00017592  00000+0  64708-3 0  9991","line2":"2 61914  43.0027 210.8840 0002173 284.1215  75.9395 15.27589458 86385","mean_motion":15.27589458,"eccentricity":0.0002173,"inclination_deg":43.0027,"raan_deg":210.884,"arg_perigee_deg":284.1215,"mean_anomaly_deg":75.9395,"bstar":0.00064708,"rev_number":8638,"period_min":94.266165065405,"perigee_km":481.52984594665,"apogee_km":484.5117051159,"semimajor_km":6861.1577755313,"source":"CELESTRAK","updated_at":"2026-05-25T13:38:19.480204Z"}}